Showing default

R2, 46913

Orbit data source: Space-Track

R2, 46913 is a payload satellite owned by NanoAvionics (LT) in LEO that was launched on Sat, 07 Nov 2020 UTC via a PSLV-DL launch vehicle from the Sirharikota (SRI). Payload-class satellites include a variety of spacecraft equipped with specific instruments for various scientific and technological missions. These include communications satellites like Starlink; space stations such as the ISS; scientific satellites like the Hubble; Earth observation satellites from companies like Planet Labs, Umbra, and HawkEye 360; GPS; miniature CubeSats for education and research; and military/defense satellites.

Loading next visibility...
Identifier
46913, 2020-081J
Orbit
LEO
Country
Flag of LTLT / LTU
Related business
Manufacturer
NanoAvionics US
Mission
Operational Commercial Technology
Bus & Motor
CUBESAT 6U, Unknown motor
Mass
6.8 kg wet, 6.8 kg dry
Launch date (UTC)
2020-11-07 (5 years ago)
Launch vehicle
PSLV-DL
Launch site
Sirharikota (SRI)
Object type
Payload
Rocket body
Debris
Shape & HBR
Box, Unknown HBR
Radar Cross Section
0.080 m², Small (<0.1 m²)

Expand to show TLE details & history
Last TLE update: 7 hours ago

TLE from 7 hours ago
0 R2
1 46913U 20081J   25288.87496453  .00010351  00000-0  46763-3 0  9994
2 46913  36.8974 121.3217 0008478   9.4714 350.6192 15.20401203274716
Epoch: 2025-10-15T20:59Z
TLE epoch observation values (Epoch: 2025-10-15T20:59:56.935Z)
Latitude
-0.00001°
Longitude
141.69169°
Altitude
497.983 km
Speed
7.621 km/s
True Right ascension
08h 05m 17s
True Declination
0° 00' 00"
Sunlit
Object was in daylight at epoch
Visualization orbit readout
Latitude
Unknown
Longitude
Unknown
Altitude
Unknown
Speed
Unknown
Apparent Right ascension
Unknown
Apparent Declination
Unknown
Sunlit
N/A
Visualization observer readout
Local Sidereal Time
22:24:58
Azimuth
Unknown
Elevation
Unknown
Doppler factor
Unknown
Orbital elements
Apogee altitude
513.411 km
Perigee altitude
501.736 km
Semi-major axis
6,885.711 km
Eccentricity
0.00085
Inclination
36.8974°
RAAN
121.3217°
Arg. of periapsis
9.4714°
True anomaly
350.60335°
Mean anomaly
350.6192°
Eccentric anomaly
350.61128°
Mean motion
3.79857 °/min
Orbital period
94.77 mins
BSTAR
0.00046763
Loading maneuver chart data...
Computing Atmospheric mass density...
Loading historical data...
Loading historical data...
Loading historical data...
Loading historical data...
Loading historical data...
Loading historical data...
Loading historical data...

Documentation

Showing up to 5 results
|